Regional Weather Roundup
Issued by NWS Kansas City/Pleasant Hill, MO

Home | Current Version | Previous Version | Graphics & Text | Print | Product List | Glossary Off
Versions: 1 2 3 4 5 6 7 8 9 10 11 12 13 14 15 16 17 18 19 20 21 22 23 24 25 26 27 28 29 30 31 32 33 34 35 36 37 38 39 40 41 42 43 44 45 46 47 48 49 50

000
ASUS43 KEAX 101710
RWREAX

WEATHER ROUNDUP FOR EASTERN KANSAS AND NORTHWEST MISSOURI
NATIONAL WEATHER SERVICE KANSAS CITY/PLEASANT HILL MO
1100 AM CST WED FEB 10 2016

KSZ040-057-103>105-MOZ028-029-037-043-101800-
...KANSAS CITY METROPOLITAN AREA...

CITY           SKY/WX    TMP DP  RH WIND       PRES   REMARKS
K.C. INTL      PTSUNNY   34  14  43 S18G28    30.04F WCI  23
K.C. DOWNTOWN  SUNNY     36  14  40 S17       30.06F WCI  26
LEES SUMMIT    SUNNY     33  13  43 S20       30.06F WCI  21
OLATHE - IXD   SUNNY     34  14  43 S18G26    30.06F WCI  23
OLATHE - OJC   SUNNY     33  13  43 S16G26    30.06F WCI  23
LAWRENCE       CLOUDY    36  14  40 S15       30.06F WCI  27

$$

MOZ001>008-011>017-020>025-030>033-038>040-044>046-053-054-101800-
...NORTHERN AND CENTRAL MISSOURI...

CITY           SKY/WX    TMP DP  RH WIND       PRES   REMARKS
ST. JOSEPH     CLOUDY    33  14  45 S13       30.04F WCI  24
MOSBY            N/A     32  14  47 S12       30.07F WCI  23
WARRENSBURG    CLOUDY    32  14  47 S12       30.10F WCI  23
WHITEMAN AFB   PTSUNNY   31  13  47 SW14      30.09F WCI  21
CLINTON          N/A     34  16  47 S9        30.14F WCI  26
SEDALIA        CLOUDY    30  17  58 S8        30.13F WCI  22
WARSAW         NOT AVBL
CHILLICOTHE      N/A     26  19  74 SE6       30.11F WCI  19
KIRKSVILLE     LGT SNOW  19  14  81 S6        30.12S WCI  11

$$

MOZ041-047>049-056>058-063>065-088>090-097-101800-
...EASTERN AND SOUTHERN MISSOURI...

CITY           SKY/WX    TMP DP  RH WIND       PRES   REMARKS
ST. LOUIS INTL CLOUDY    23   6  48 W9        30.17F WCI  13
SPIRIT OF STL  CLOUDY    22   7  52 SW7       30.18F WCI  13
COLUMBIA       LGT SNOW  21  18  88 SW7       30.15F VSB 1   WCI  12
JEFFERSON CITY LGT SNOW  21  18  88 CALM      30.19F VSB 1
ROLLA          FOG       20  16  84 SW5       30.13F VSB 3/4 WCI  13
OSAGE BEACH    CLOUDY    27  12  54 S5        30.17F WCI  21
SPRINGFIELD    SUNNY     35  11  36 S13       30.13F WCI  26
BRANSON        MOSUNNY   32   9  37 S7        30.19F WCI  26
JOPLIN         SUNNY     36  13  38 S14       30.16F WCI  27
WEST PLAINS    CLOUDY    29   9  43 CALM      30.19F

$$

IAZ060-094-KSZ022-034>040-054-083-096-NEZ052-066-093-101800-
...KANSAS...SOUTHEAST NEBRASKA AND IOWA...

CITY           SKY/WX    TMP DP  RH WIND       PRES   REMARKS
TOPEKA         SUNNY     39  15  37 S16G22    30.04F WCI  30
MANHATTAN      SUNNY     41  23  48 SW16      29.99F WCI  33
EMPORIA        SUNNY     41  18  39 SW22      30.03F WCI  31
CHANUTE        SUNNY     38  14  37 S20G25    30.11F WCI  28
WICHITA        MOSUNNY   42  24  49 S13       30.06F
OMAHA          CLOUDY    31  19  61 SE9       29.97F WCI  23
LINCOLN        CLOUDY    31  23  72 SW6       29.95S WCI  25
FALLS CITY     CLOUDY    34  16  47 S15       29.99F WCI  24
LAMONI         CLOUDY    21  18  88 SE8       30.05F WCI  11
DES MOINES     LGT SNOW  18  11  74 E7        30.09F WCI   9

$$




USA.gov is the U.S. government's official web portal to all federal, state and local government web resources and services.